Home > Weather > Ottawa > Past weeks

Flag for Canada Weather for the Past 2 Weeks in Ottawa, Ontario, Canada

Now
-2 °F

Sunny.


Feels Like: -16 °F
Forecast: N/A
Wind: 7 mph from West

Location: Ottawa Int'L. Ont.

Current Time: Feb 14, 2016 at 4:51:46 PM

Latest Report: Feb 14, 2016 at 4:00 PM


Visibility: 15 mi

Pressure: 30.53 "Hg

Humidity: 45%

Dew point: -18 °F

Location of OttawaLocation

Historic Weather in Ottawa — Graph

°F

Ottawa Temperature Yesterday

Maximum temperature yesterday: 3 °F (at 12:00 AM)
Minimum temperature yesterday: -20 °F (at 8:00 AM)
Average temperature yesterday: -13 °F

High & Low Weather Summary for the Past Weeks

 TemperatureHumidityPressure
High46 °F (Feb 3, 9:00 PM)100% (Jan 31, 9:00 PM)30.59 "Hg (Jan 31, 9:00 PM)
Low-22 °F (Feb 14, 5:00 AM)42% (Feb 8, 2:00 PM)29.38 "Hg (Feb 1, 3:00 AM)
Average19 °F72%29.97 "Hg
* Reported Jan 30 3:00 PM — Feb 14 3:00 PM, Ottawa, Weather by CustomWeather, © 2016

Note: Actual official high and low records may vary slightly from our data, if they occured in-between our weather recording intervals... More about our weather records

Advertising

Ottawa Weather History for the Previous 24 Hours

 ConditionsComfort  
Time TempWeatherWind HumidityBarometerVisibility
3:00 PM
Sun, Feb 14
-2 °FSunny.10 mph45%30.53 "Hg15 mi
2:00 PM-4 °FSunny.8 mph49%30.53 "Hg15 mi
1:00 PM-6 °FSunny.13 mph49%30.55 "Hg15 mi
12:00 PM-8 °FPassing clouds.13 mph48%30.57 "Hg15 mi
11:00 AM-11 °FSunny.10 mph58%30.59 "Hg15 mi
10:00 AM-13 °FSunny.9 mph57%30.59 "Hg15 mi
9:00 AM-17 °FSunny.8 mph63%30.59 "Hg15 mi
8:00 AM-20 °FSunny.10 mph68%30.58 "Hg15 mi
7:00 AM-20 °FClear.8 mph68%30.56 "Hg15 mi
6:00 AM-20 °FClear.9 mph68%30.55 "Hg15 mi
5:00 AM-22 °FClear.8 mph68%30.53 "Hg15 mi
4:00 AM-20 °FClear.7 mph68%30.51 "Hg15 mi
3:00 AM-18 °FClear.8 mph62%30.50 "Hg15 mi
2:00 AM-18 °FClear.9 mph62%30.49 "Hg15 mi
1:00 AM-18 °FClear.8 mph62%30.48 "Hg15 mi
12:00 AM-17 °FClear.10 mph57%30.47 "Hg15 mi
11:00 PM
Sat, Feb 13
-17 °FClear.13 mph57%30.45 "Hg15 mi
10:00 PM-17 °FClear.12 mph57%30.46 "Hg15 mi
9:00 PM-17 °FPassing clouds.13 mph57%30.45 "Hg15 mi
8:00 PM-15 °FPassing clouds.16 mph52%30.43 "Hg15 mi
7:00 PM-15 °FPassing clouds.14 mph52%30.41 "Hg15 mi
6:00 PM-15 °FPassing clouds.17 mph52%30.38 "Hg15 mi
5:00 PM-15 °FPartly sunny.20 mph52%30.34 "Hg15 mi
4:00 PM-13 °FPartly sunny.20 mph47%30.32 "Hg15 mi
Weather by CustomWeather, © 2016

See weather overviewHow to use our weather pages